Kalamazoo Battle Creek International Airport
KAZO : now visible

Airfield :











YOU CAN JOIN US ON...

 
LOGIN :

Register | Disclaimer

   EN    FR    IT 

 









Legend :    VFR   Marginal VFR   IFR   Intensive IFR   Very Intensive IFR
Visi :
Ceiling :
>= 8 km
>= 3000ft
5 to 8 km
1000 to 3000 ft
1500m to 5 km
500 to 1000 ft
800 to 1500m
200 to 500 ft
< 800m
< 200 ft
Symbols :   Thunderstorms  Fog  Heavy snow  Heavy precipitations  Wind > 20 kt






- Airport Elevation : 874 ft
- IATA code : AZO


KAZO - Kalamazoo Battle Creek International

CURRENT METAR :
  • 261153Z 21005KT 10SM CLR 10/05 A2998 RMK AO2 SLP154 T01000050 10133 20100 51009 $

EXPIRED METARs :
  • 261053Z 21006KT 10SM CLR 11/05 A2997 RMK AO2 SLP151 T01060050 $
  • 260953Z 21004KT 10SM CLR 11/05 A2996 RMK AO2 SLP147 T01060050 $

TAF KAZO
Valid from the 26 at 12:00 until the 27 at 12:00 UTC


261131Z 2612/2712 21006KT P6SM SCT120
FM261500 24015G25KT P6SM SCT120
FM270000 20010KT P6SM BKN120 WS020/24045KT
KZAU FIR / North America



MET'MAP, your aeronautical weather chart ! - Copyright ORBIFLY December 2007 - Disclaimer

ORBIFLY MET'MAP TEAM :

Programming & Development : Alexandra Zaïnal
Concept & original design : Baudouin d'Aumeries
Assistance for programming : Marc-Olivier Méhu
Technical & hardware support : Manuel Goepfert

Contact : metmap@orbifly.com




SOURCES & CREDITS :

   NOAA       Earth
Advisory